User: anonymous   Login
Location: Antioch Baptist Church
(32.7160°N, 96.7483°W)
Time: 12:22:43
(UTC+00:00)
Language:

Cosmos 2151 - Orbit

View from above orbital plane
View from above orbital plane
View from above satellite
View from above satellite

Ground track
Ground track

The orbit data is extracted from the following two-line orbital elements,

1 21422U 91042A   24104.21059764  .00002727  00000-0  24422-3 0  9997
2 21422  82.5021  32.1798 0011796 240.9739 119.0301 14.95428583780222
Epoch (UTC): 13 April 2024 05:03:15
Eccentricity: 0.0011796
inclination: 82.5021°
perigee height: 573 km
apogee height: 589 km
right ascension of ascending node: 32.1798°
argument of perigee: 240.9739°
revolutions per day: 14.95428583
mean anomaly at epoch: 119.0301°
orbit number at epoch: 78022

The dashed part of the orbit path shows where the satellite is in the earth's shadow,  

DLR